Weather History for San Jose, Costa Rica

Change the Weather History Date:

Thursday, April 3, 2014

  Actual Average Record
Temperature  
Mean Temperature 78 °F -  
Max Temperature 87 °F 83 °F 91 °F (1998)
Min Temperature 68 °F 65 °F 60 °F (1997)
Cooling Degree Days 12    
Growing Degree Days 28 (Base 50)    
Moisture  
Dew Point 57 °F    
Average Humidity 52    
Maximum Humidity 73    
Minimum Humidity 26    
Precipitation  
Precipitation 0.00 in 0.13 in - ()
Sea Level Pressure  
Sea Level Pressure 29.96 in    
Wind  
Wind Speed 11 mph ()    
Max Wind Speed 18 mph    
Max Gust Speed 24 mph    
Visibility 8.9 miles    
Events      
Averages and records for this station are not official NWS values.
T = Trace of Precipitation, MM = Missing Value Source: Averaged Metar Reports

Daily Weather History Graph

Daily Weather History Graph

Search for Another Location

Airport:

Trip Planner

Search our weather history database for the weather conditions in past years. The results will help you decide how hot, cold, wet, or windy it might be!

Date:

Astronomy

Apr. 03, 2014 Rise Set
Actual Time 5:32 AM CST 5:47 PM CST
Civil Twilight 5:11 AM CST 6:08 PM CST
Nautical Twilight 4:47 AM CST 6:33 PM CST
Astronomical Twilight 4:22 AM CST 6:57 PM CST
Moon 8:36 AM CST (4/3) 9:28 PM CST (4/3)
Length of Visible Light 12h 56m
Length of Day
12h 14m
Waxing Crescent, 18% of the Moon is Illuminated
Apr 3
Waxing Crescent
Apr 7
First Quarter
Apr 15
Full
Apr 22
Last Quarter
Apr 29
New

Hourly Weather History & Observations

Time (CST) Temp. Heat Index Dew Point Humidity Pressure Visibility Wind Dir Wind Speed Gust Speed Precip Events Conditions
12:00 AM 71 °F - 56 °F 49% 29.84 in 12 mi East 10.4 mph - -  
12:00 AM 69.8 °F - 55.4 °F 60% 30.00 in - East 10.4 mph 21.9 mph N/A   Clear
1:00 AM 69.8 °F - 55.4 °F 60% 30.00 in - East 10.4 mph 23.0 mph N/A   Clear
2:00 AM 69.8 °F - 57.2 °F 64% 29.98 in - East 12.7 mph 24.2 mph N/A   Clear
3:00 AM 69 °F - 57 °F 57% 29.81 in 12 mi East 15.0 mph - -  
3:00 AM 69.8 °F - 57.2 °F 64% 29.97 in - East 15.0 mph - N/A   Clear
4:00 AM 68.0 °F - 57.2 °F 68% 29.97 in - ESE 18.4 mph - N/A   Clear
5:00 AM 69.8 °F - 57.2 °F 64% 29.99 in - East 10.4 mph 21.9 mph N/A   Clear
6:00 AM 69 °F - 56 °F 55% 29.86 in 12 mi East 18.4 mph - -   Clear
6:00 AM 68.0 °F - 57.2 °F 68% 30.00 in - East 18.4 mph - N/A   Clear
7:00 AM 71.6 °F - 57.2 °F 60% 30.01 in - East 11.5 mph 23.0 mph N/A   Clear
8:00 AM 77.0 °F - 53.6 °F 44% 30.03 in - ESE 12.7 mph 24.2 mph N/A   Clear
9:00 AM 80 °F - 53 °F 29% 29.87 in 12 mi East 11.5 mph - -  
9:00 AM 80.6 °F 80.3 °F 53.6 °F 39% 30.03 in - East 11.5 mph - N/A   Clear
10:00 AM 84.2 °F 82.8 °F 53.6 °F 35% 30.03 in - East 10.4 mph - N/A   Clear
11:00 AM 86.0 °F 84.2 °F 53.6 °F 33% 30.02 in - East 9.2 mph - N/A   Clear
12:00 PM 84 °F - 55 °F 26% 29.83 in 12 mi East 11.5 mph - -   Scattered Clouds
12:00 PM 84.2 °F 83.0 °F 55.4 °F 37% 30.00 in 6.2 mi East 11.5 mph - N/A   Mostly Cloudy
1:00 PM 86.0 °F 84.2 °F 53.6 °F 33% 29.98 in 6.2 mi ESE 10.4 mph - N/A   Mostly Cloudy
2:00 PM 86.0 °F 84.5 °F 55.4 °F 35% 29.96 in 6.2 mi East 11.5 mph - N/A   Mostly Cloudy
3:00 PM 85 °F - 57 °F 28% 29.78 in 12 mi East 11.5 mph - -  
3:00 PM 86.0 °F 84.9 °F 57.2 °F 37% 29.94 in 6.2 mi East 11.5 mph - N/A   Scattered Clouds
4:00 PM 82.4 °F 82.5 °F 59.0 °F 45% 29.94 in 6.2 mi East 10.4 mph - N/A   Scattered Clouds
5:00 PM 78.8 °F - 59.0 °F 51% 29.95 in 6.2 mi ESE 10.4 mph - N/A   Scattered Clouds
6:00 PM 75 °F - - %  in 12 mi ESE 10.4 mph - -  
6:00 PM 75.2 °F - 60.8 °F 61% 29.97 in 6.2 mi ESE 10.4 mph - N/A   Scattered Clouds
7:00 PM 73.4 °F - 62.6 °F 69% 29.99 in 6.2 mi ESE 10.4 mph - N/A   Partly Cloudy
8:00 PM 71.6 °F - 62.6 °F 73% 30.01 in 6.2 mi East 9.2 mph - N/A   Partly Cloudy
9:00 PM 71 °F - 61 °F 64% 29.90 in 12 mi East 8.1 mph - -  
10:00 PM 71.6 °F - 62.6 °F 73% 30.03 in - East 6.9 mph - N/A   Clear
11:00 PM 71.6 °F - 62.6 °F 73% 30.01 in - ESE 10.4 mph - N/A   Clear